Regional Weather Roundup
Issued by NWS

Home | Current Version | Previous Version | Text Only | Print | Product List | Glossary Off
Versions: 1 2 3 4 5 6 7 8 9 10 11 12 13 14 15 16 17 18 19 20 21 22 23 24 25 26 27 28 29 30 31 32 33 34 35 36 37 38 39 40 41 42 43 44 45 46 47 48 49 50

000
ASUS44 KMEG 300810
RWRTN
TENNESSEE HOURLY STATE WEATHER ROUNDUP
NATIONAL WEATHER SERVICE MEMPHIS TN
300 AM CDT TUE SEP 30 2014

TNZ002-004-019-021-049-052-054-088>092-300900-
WEST TENNESSEE

CITY           SKY/WX    TMP DP  RH WIND       PRES   REMARKS
MEMPHIS INTL   CLEAR     65  58  78 CALM      29.92F
NWS MEMPHIS      N/A     62 N/A N/A MISG        N/A
JACKSON        CLEAR     61  57  88 CALM      29.93F FOG
DYERSBURG      CLEAR     61  50  67 CALM      29.95S
UNION CITY     CLEAR     57  55  94 CALM      29.93S
PARIS          CLEAR     57  54  88 NE3       29.94F
HUNTINGDON     CLEAR     58  56  93 CALM      29.94S
LEXINGTON      CLEAR     57  57 100 CALM      29.93S
SAVANNAH       CLEAR     57  57 100 CALM      29.94S
$$

TNZ008-025-027-028-033-062-065-066-300900-
NORTH MIDDLE TENNESSEE

CITY           SKY/WX    TMP DP  RH WIND       PRES   REMARKS
NASHVILLE      CLEAR     62  59  90 S3        29.94F
DICKSON        CLEAR     61  57  88 CALM      29.94F
PORTLAND       CLEAR     57  55  94 CALM      29.94F
CLARKSVILLE    CLEAR     59  57  93 CALM      29.94S
LEBANON        CLEAR     58  57  96 CALM      29.93F
SMYRNA         CLEAR     60  60 100 CALM      29.95F
MURFREESBORO   CLEAR     61  58  90 CALM      29.94F
COOKEVILLE     MOCLDY    54  54 100 CALM      29.95S VSB 1/2
LIVINGSTON     CLEAR     60  57  89 CALM      29.96F
GALLATIN       CLEAR     59  58  96 CALM      29.95F
CROSSVILLE     CLEAR     60  55  83 CALM      29.99S
$$

TNZ061-075-076-078-094-096-097-300900-
SOUTH MIDDLE TENNESSEE

CITY           SKY/WX    TMP DP  RH WIND       PRES   REMARKS
LEWISBURG      PTCLDY    57  56  97 CALM      29.94F
FAYETTEVILLE   CLEAR     59  57  94 MISG      29.95S
TULLAHOMA      CLEAR     57  54  88 CALM      29.96F
WINCHESTER     PTCLDY    55  55 100 CALM      29.96S
MCMINNVILLE    CLOUDY    55  55 100 CALM      29.96S VSB 1/4
COLUMBIA       CLEAR    N/A N/A N/A CALM      29.93S
SHELBYVILLE    CLEAR     57  57 100 CALM      29.95F
$$

TNZ017-018-042-046-047-300900-
NORTHEAST TENNESSEE

CITY           SKY/WX    TMP DP  RH WIND       PRES   REMARKS
TRI CITIES     FOG       55  53  93 CALM      29.97F VSB 1/4
ELIZABETHTON   PTSUNNY   57  55  94 CALM      29.98F
$$

TNZ012-013-036-069-073-074-300900-
CENTRAL EAST TENNESSEE

CITY           SKY/WX    TMP DP  RH WIND       PRES   REMARKS
KNOXVILLE      CLEAR     62  59  90 CALM      29.94
OAK RIDGE      FOG       62  61  96 CALM      29.96F VSB 1/2
GATLINBURG     SUNNY     55  55 100 CALM      29.95F
$$

TNZ083-085-099-300900-
SOUTHEAST TENNESSEE

CITY           SKY/WX    TMP DP  RH WIND       PRES   REMARKS
CHATTANOOGA    CLEAR     63  61  93 CALM      29.95F
$$

SKY/WX REPORTED AS FAIR MEANS FEW OR NO CLOUDS BELOW
12 THOUSAND FEET.




USA.gov is the U.S. government's official web portal to all federal, state and local government web resources and services.